CW9454 Weather Reports


Display with metric or nautical units.
time (UTC)temp
F
wind
direction
speed
MPH
gust
MPH
rain 1hr
in
rain 24hr
in
rain mn
in
humidity
%
barometer
mb
20260509053034 58 181 0.0 4.0 0.00 0.00 0.00 68 1012.5
20260509052020 58 180 0.0 2.0 0.00 0.00 0.00 67 1012.3
20260509051014 58 181 0.0 3.0 0.00 0.00 0.00 67 1012.3
20260509050017 58 182 0.0 1.0 0.00 0.00 0.00 67 1012.3
20260509045031 59 181 0.0 4.0 0.00 0.00 0.00 67 1012.4
20260509044027 59 182 0.0 6.0 0.00 0.00 0.00 67 1012.5
20260509043020 59 155 1.0 5.0 0.00 0.00 0.00 68 1012.5
20260509042014 58 145 0.0 5.0 0.00 0.00 0.00 69 1012.4
20260509041048 58 137 0.0 4.0 0.00 0.00 0.00 70 1012.3
20260509040014 58 148 1.0 4.0 0.00 0.00 0.00 72 1012.4
20260509035027 59 128 0.0 0.0 0.00 0.00 0.00 73 1012.5
20260509034021 59 128 0.0 2.0 0.00 0.00 0.00 74 1012.5
20260509033016 59 125 0.0 2.0 0.00 0.00 0.00 75 1012.7
20260509032050 59 119 0.0 1.0 0.00 0.00 0.00 75 1012.7
20260509031025 59 119 0.0 3.0 0.00 0.00 0.00 75 1012.7
20260509030032 60 136 0.0 0.0 0.00 0.00 0.00 75 1012.7
20260509025027 60 136 0.0 1.0 0.00 0.00 0.00 75 1012.8
20260509024041 60 136 0.0 0.0 0.00 0.00 0.00 75 1012.7
20260509023024 60 136 0.0 2.0 0.00 0.00 0.00 75 1012.8
20260509022018 61 136 0.0 0.0 0.00 0.00 0.00 74 1012.6
20260509021013 61 136 0.0 1.0 0.00 0.00 0.00 73 1012.7
20260509020020 62 134 0.0 1.0 0.00 0.00 0.00 71 1012.6
20260509015034 62 134 0.0 3.0 0.00 0.00 0.00 69 1012.6
20260509014027 62 155 0.0 1.0 0.00 0.00 0.00 68 1012.6
20260509013021 62 153 0.0 1.0 0.00 0.00 0.00 67 1012.7
20260509012015 62 154 0.0 0.0 0.00 0.00 0.00 67 1012.6
20260509011030 62 154 0.0 1.0 0.00 0.00 0.00 66 1012.4
20260509010015 62 154 0.0 0.0 0.00 0.00 0.00 65 1012.4
20260509005045 63 154 0.0 2.0 0.00 0.00 0.00 65 1012.4
20260509004019 63 155 0.0 3.0 0.00 0.00 0.00 64 1012.4
20260509003014 63 124 0.0 1.0 0.00 0.00 0.00 63 1012.2
20260509002028 63 126 0.0 1.0 0.00 0.00 0.00 62 1012.2
20260509001042 63 112 0.0 1.0 0.00 0.00 0.00 61 1012.0
20260509000031 64 115 0.0 3.0 0.00 0.00 0.00 60 1012.0
20260508235025 64 171 0.0 5.0 0.00 0.00 0.00 59 1011.8
20260508234040 65 140 0.0 3.0 0.00 0.00 0.00 57 1011.8
20260508233025 66 118 0.0 7.0 0.00 0.00 0.00 54 1011.8
20260508232019 68 269 0.0 2.0 0.00 0.00 0.00 53 1011.7
20260508231014 69 269 0.0 1.0 0.00 0.00 0.00 48 1011.5
20260508230023 69 269 0.0 0.0 0.00 0.00 0.00 40 1011.3
20260508225016 69 269 0.0 0.0 0.00 0.00 0.00 39 1011.3
20260508224049 69 269 0.0 2.0 0.00 0.00 0.00 39 1011.4
20260508223023 69 270 0.0 1.0 0.00 0.00 0.00 38 1011.5
20260508222018 70 270 0.0 2.0 0.00 0.00 0.00 38 1011.4
20260508221031 70 270 0.0 7.0 0.00 0.00 0.00 37 1011.4
20260508220018 70 261 1.0 6.0 0.00 0.00 0.00 35 1011.5
20260508215033 70 265 0.0 4.0 0.00 0.00 0.00 36 1011.4
20260508214016 70 261 0.0 4.0 0.00 0.00 0.00 37 1011.4
20260508213039 71 263 0.0 9.0 0.00 0.00 0.00 35 1011.4
20260508212054 71 182 0.0 6.0 0.00 0.00 0.00 35 1011.4
20260508211017 73 280 1.0 7.0 0.00 0.00 0.00 33 1011.3
20260508210034 71 234 1.0 5.0 0.00 0.00 0.00 32 1011.3
20260508205043 72 278 2.0 13.0 0.00 0.00 0.00 31 1011.3
20260508204015 73 240 4.0 11.0 0.00 0.00 0.00 31 1011.3
20260508203027 70 261 2.0 13.0 0.00 0.00 0.00 32 1011.7
20260508202021 71 244 2.0 8.0 0.00 0.00 0.00 33 1011.6
20260508201035 71 267 1.0 6.0 0.00 0.00 0.00 35 1011.6
20260508200022 71 261 3.0 8.0 0.00 0.00 0.00 33 1011.7
20260508195036 73 268 1.0 12.0 0.00 0.00 0.00 33 1011.9
20260508194029 74 267 4.0 11.0 0.00 0.00 0.00 31 1012.1
20260508193043 74 266 2.0 7.0 0.00 0.00 0.00 33 1012.2
20260508192035 72 248 1.0 9.0 0.00 0.00 0.00 32 1012.4
20260508191028 73 257 4.0 14.0 0.00 0.00 0.00 31 1012.5
20260508190014 73 262 6.0 15.0 0.00 0.00 0.00 31 1012.5
20260508185028 73 254 3.0 8.0 0.00 0.00 0.00 35 1012.6
20260508184021 73 158 1.0 10.0 0.00 0.00 0.00 34 1012.7
20260508183035 72 240 4.0 11.0 0.00 0.00 0.00 32 1012.9
20260508182029 73 269 6.0 16.0 0.00 0.00 0.00 32 1013.0
20260508181023 72 247 3.0 14.0 0.00 0.00 0.00 35 1013.0
20260508180030 72 238 3.0 8.0 0.00 0.00 0.00 36 1013.1
20260508175025 72 309 3.0 12.0 0.00 0.00 0.00 33 1013.2
20260508174036 72 285 0.0 8.0 0.00 0.00 0.00 35 1013.3
20260508173049 72 219 3.0 10.0 0.00 0.00 0.00 36 1013.5
20260508172041 70 321 5.0 15.0 0.00 0.00 0.00 34 1013.4
20260508171033 71 234 5.0 14.0 0.00 0.00 0.00 35 1013.6
20260508170039 71 219 2.0 11.0 0.00 0.00 0.00 37 1013.7
20260508165031 70 242 4.0 12.0 0.00 0.00 0.00 36 1013.9
20260508164017 70 250 4.0 11.0 0.00 0.00 0.00 39 1013.8
20260508163031 69 252 1.0 7.0 0.00 0.00 0.00 39 1013.7
20260508162025 69 248 1.0 9.0 0.00 0.00 0.00 41 1014.0
20260508161038 68 331 4.0 10.0 0.00 0.00 0.00 40 1014.2
20260508160023 68 257 4.0 10.0 0.00 0.00 0.00 38 1014.3
20260508155016 68 343 4.0 14.0 0.00 0.00 0.00 40 1014.4
20260508154029 67 246 5.0 13.0 0.00 0.00 0.00 40 1014.7
20260508153023 68 275 4.0 11.0 0.00 0.00 0.00 42 1014.7
20260508152017 67 242 5.0 11.0 0.00 0.00 0.00 39 1014.9
20260508151030 67 229 2.0 11.0 0.00 0.00 0.00 40 1014.9
20260508150016 66 261 2.0 10.0 0.00 0.00 0.00 41 1014.9
20260508145031 65 279 2.0 10.0 0.00 0.00 0.00 39 1015.0
20260508144015 65 273 2.0 9.0 0.00 0.00 0.00 38 1015.1
20260508143038 64 241 1.0 9.0 0.00 0.00 0.00 43 1015.1
20260508142022 62 261 3.0 8.0 0.00 0.00 0.00 43 1015.2
20260508141016 60 261 2.0 7.0 0.00 0.00 0.00 46 1015.3
20260508140026 59 242 0.0 5.0 0.00 0.00 0.00 49 1015.2
20260508135020 58 251 1.0 5.0 0.00 0.00 0.00 48 1015.4
20260508134014 57 258 1.0 6.0 0.00 0.00 0.00 50 1015.5
20260508133028 56 252 1.0 4.0 0.00 0.00 0.00 53 1015.6
20260508132037 56 246 3.0 7.0 0.00 0.00 0.00 54 1015.8
20260508131030 55 253 1.0 5.0 0.00 0.00 0.00 58 1015.9
20260508130036 54 254 0.0 5.0 0.00 0.00 0.00 60 1015.9
20260508125029 53 281 0.0 5.0 0.00 0.00 0.00 64 1015.9
20260508124021 52 285 1.0 3.0 0.00 0.00 0.00 66 1015.8
20260508123016 51 285 0.0 3.0 0.00 0.00 0.00 70 1015.7
20260508122030 50 285 0.0 3.0 0.00 0.00 0.00 72 1015.7
20260508121016 49 286 1.0 4.0 0.00 0.00 0.00 75 1015.6
20260508120032 47 324 0.0 3.0 0.00 0.00 0.00 79 1015.7
20260508115017 46 337 0.0 0.0 0.00 0.00 0.00 80 1015.5
20260508114041 46 337 0.0 0.0 0.00 0.00 0.00 81 1015.4
20260508113034 45 337 0.0 0.0 0.00 0.00 0.00 82 1015.3
20260508112019 45 337 0.0 0.0 0.00 0.00 0.00 81 1015.2
20260508111013 45 337 0.0 0.0 0.00 0.00 0.00 80 1015.0
20260508110020 45 337 0.0 0.0 0.00 0.00 0.00 80 1014.9
20260508105014 46 337 0.0 0.0 0.00 0.00 0.00 79 1014.9
20260508104029 46 337 0.0 0.0 0.00 0.00 0.00 79 1014.8
20260508103043 46 337 0.0 0.0 0.00 0.00 0.00 79 1014.8
20260508102015 46 337 0.0 0.0 0.00 0.00 0.00 78 1014.7
20260508101029 47 337 0.0 0.0 0.00 0.00 0.00 78 1014.5
20260508100015 47 337 0.0 0.0 0.00 0.00 0.00 77 1014.3
20260508095029 48 337 0.0 0.0 0.00 0.00 0.00 76 1014.2
20260508094023 48 337 0.0 0.0 0.00 0.00 0.00 75 1014.2
20260508093033 49 337 0.0 0.0 0.00 0.00 0.00 74 1014.1
20260508092018 49 337 0.0 0.0 0.00 0.00 0.00 73 1014.1
20260508091042 50 337 0.0 0.0 0.00 0.00 0.00 72 1014.1
20260508090019 50 337 0.0 0.0 0.00 0.00 0.00 71 1014.1
20260508085013 51 337 0.0 0.0 0.00 0.00 0.00 71 1013.9
20260508084055 51 337 0.0 0.0 0.00 0.00 0.00 70 1013.7
20260508083018 51 337 0.0 1.0 0.00 0.00 0.00 69 1013.7
20260508082013 51 337 1.0 4.0 0.00 0.00 0.00 69 1013.5
20260508081026 51 330 0.0 1.0 0.00 0.00 0.00 71 1013.3
20260508080027 51 330 0.0 3.0 0.00 0.00 0.00 72 1013.2
20260508075041 50 329 0.0 4.0 0.00 0.00 0.00 76 1013.1
20260508074015 50 286 0.0 4.0 0.00 0.00 0.00 79 1013.1
20260508073027 50 244 0.0 3.0 0.00 0.00 0.00 82 1012.7
20260508072041 50 232 0.0 3.0 0.00 0.00 0.00 84 1012.6
20260508071013 50 225 0.0 0.0 0.00 0.00 0.00 84 1012.6
20260508070023 50 225 0.0 0.0 0.00 0.00 0.00 84 1012.4
20260508065018 50 225 0.0 7.0 0.00 0.01 0.00 84 1012.4
20260508064032 50 252 0.0 4.0 0.00 0.01 0.00 85 1012.2
20260508063026 51 247 0.0 5.0 0.00 0.01 0.00 85 1011.9
20260508062018 51 244 0.0 4.0 0.00 0.01 0.00 84 1012.0
20260508061052 51 245 1.0 4.0 0.00 0.01 0.00 84 1011.9
20260508060018 51 257 2.0 6.0 0.00 0.01 0.00 84 1011.9
20260508055028 51 256 2.0 5.0 0.00 0.04 0.00 84 1011.9
20260508054021 51 252 1.0 4.0 0.00 0.04 0.00 84 1011.9